Weather History for KFMM - October, 2012

Change the Weather History Date:

Friday, October 19, 2012

  Actual Average (KAKO) Record (KAKO)
Temperature  
Mean Temperature 50 °F 49 °F  
Max Temperature 73 °F 63 °F 86 °F (2003)
Min Temperature 27 °F 36 °F 17 °F (1976)
Degree Days  
Heating Degree Days 15    
Month to date heating degree days  
Cooling Degree Days 0    
Month to date cooling degree days  
Moisture  
Dew Point 18 °F    
Average Humidity 33    
Maximum Humidity 65    
Minimum Humidity 12    
Precipitation  
Precipitation 0.00 in 0.03 in 0.22 in (1990)
Month to date precipitation 0.77  
Year to date precipitation 15.42  
Sea Level Pressure  
Sea Level Pressure 29.96 in    
Wind  
Wind Speed 6 mph ()    
Max Wind Speed 14 mph    
Max Gust Speed -    
Visibility 10.0 miles    
Events      
T = Trace of Precipitation, MM = Missing Value Source: Averaged Metar Reports

Daily Weather History Graph

Daily Weather History Graph

Search for Another Location

Airport or City:

Trip Planner

Search our weather history database for the weather conditions in past years. The results will help you decide how hot, cold, wet, or windy it might be!

Date:

Astronomy

Oct. 19, 2012 Rise Set
Actual Time 7:10 AM MDT 6:08 PM MDT
Civil Twilight 6:43 AM MDT 6:36 PM MDT
Nautical Twilight 6:11 AM MDT 7:07 PM MDT
Astronomical Twilight 5:40 AM MDT 7:39 PM MDT
Moon 11:56 AM MDT (10/19) 9:49 PM MDT (10/19)
Length of Visible Light 11h 52m
Length of Day
10h 57m
Waxing Crescent, 24% of the Moon is Illuminated
Oct 19
Waxing Crescent
Oct 21
First Quarter
Oct 29
Full
Nov 6
Last Quarter
Nov 13
New

Hourly Weather History & Observations

Time (MDT) Temp. Windchill Dew Point Humidity Pressure Visibility Wind Dir Wind Speed Gust Speed Precip Events Conditions
12:15 AM 38.7 °F 33.6 °F 12.0 °F 34% 30.09 in 10.0 mi West 6.9 mph - N/A   Clear
12:35 AM 38.8 °F 35.4 °F 12.0 °F 33% 30.10 in 10.0 mi West 4.6 mph - N/A   Clear
12:55 AM 37.2 °F 34.7 °F 12.2 °F 36% 30.09 in 10.0 mi West 3.5 mph - N/A   Clear
1:15 AM 35.4 °F - 12.7 °F 39% 30.10 in 10.0 mi Calm Calm - N/A   Clear
1:35 AM 33.1 °F 26.9 °F 12.7 °F 43% 30.09 in 10.0 mi West 6.9 mph - N/A   Clear
1:55 AM 33.3 °F 27.1 °F 12.9 °F 43% 30.09 in 10.0 mi West 6.9 mph - N/A   Clear
2:15 AM 33.3 °F 28.9 °F 12.9 °F 43% 30.09 in 10.0 mi West 4.6 mph - N/A   Clear
2:55 AM 36.3 °F 33.7 °F 13.8 °F 40% 30.07 in 10.0 mi NW 3.5 mph - N/A   Clear
3:15 AM 33.3 °F 27.9 °F 13.8 °F 45% 30.07 in 10.0 mi WNW 5.8 mph - N/A   Clear
3:35 AM 33.3 °F 27.9 °F 14.4 °F 46% 30.07 in 10.0 mi West 5.8 mph - N/A   Clear
3:55 AM 32.0 °F 25.6 °F 14.9 °F 49% 30.07 in 10.0 mi West 6.9 mph - N/A   Clear
4:15 AM 32.0 °F 26.4 °F 14.4 °F 48% 30.06 in 10.0 mi West 5.8 mph - N/A   Clear
4:35 AM 30.4 °F 23.6 °F 14.4 °F 51% 30.06 in 10.0 mi WNW 6.9 mph - N/A   Clear
4:55 AM 30.2 °F 24.3 °F 14.4 °F 52% 30.06 in 10.0 mi WNW 5.8 mph - N/A   Clear
5:15 AM 28.9 °F 23.9 °F 14.7 °F 55% 30.06 in 10.0 mi West 4.6 mph - N/A   Clear
5:35 AM 27.9 °F 19.8 °F 15.8 °F 61% 30.06 in 10.0 mi West 8.1 mph - N/A   Clear
5:55 AM 27.5 °F 16.3 °F 16.7 °F 64% 30.05 in 10.0 mi West 13.8 mph - N/A   Clear
6:15 AM 28.2 °F 19.5 °F 16.9 °F 63% 30.05 in 10.0 mi West 9.2 mph - N/A   Clear
6:35 AM 28.9 °F 20.4 °F 16.7 °F 60% 30.05 in 10.0 mi West 9.2 mph - N/A   Clear
6:55 AM 29.5 °F 21.1 °F 16.3 °F 58% 30.05 in 10.0 mi WSW 9.2 mph - N/A   Clear
7:15 AM 27.7 °F 18.2 °F 17.4 °F 65% 30.05 in 10.0 mi West 10.4 mph - N/A   Clear
7:55 AM 30.6 °F 22.4 °F 18.3 °F 60% 30.04 in 10.0 mi West 9.2 mph - N/A   Clear
8:15 AM 33.8 °F 26.4 °F 19.0 °F 55% 30.05 in 10.0 mi West 9.2 mph - N/A   Clear
8:35 AM 37.9 °F 30.9 °F 18.5 °F 46% 30.04 in 10.0 mi West 10.4 mph - N/A   Clear
8:55 AM 41.0 °F 35.8 °F 18.5 °F 40% 30.04 in 10.0 mi WSW 8.1 mph - N/A   Clear
9:15 AM 42.4 °F 37.5 °F 17.8 °F 37% 30.04 in 10.0 mi WSW 8.1 mph - N/A   Clear
9:35 AM 47.3 °F - 16.9 °F 30% 30.03 in 10.0 mi WSW 9.2 mph - N/A   Clear
9:55 AM 49.8 °F - 17.8 °F 28% 30.02 in 10.0 mi WSW 9.2 mph - N/A   Clear
10:15 AM 52.2 °F - 18.9 °F 27% 30.01 in 10.0 mi SW 8.1 mph - N/A   Clear
10:35 AM 55.4 °F - 19.9 °F 25% 30.00 in 10.0 mi SW 8.1 mph - N/A   Clear
10:55 AM 58.8 °F - 20.1 °F 22% 29.99 in 10.0 mi SW 3.5 mph - N/A   Clear
11:15 AM 61.5 °F - 19.9 °F 20% 29.98 in 10.0 mi South 5.8 mph - N/A   Clear
11:35 AM 63.1 °F - 19.4 °F 19% 29.97 in 10.0 mi South 9.2 mph - N/A   Clear
11:55 AM 64.0 °F - 19.9 °F 18% 29.96 in 10.0 mi South 6.9 mph - N/A   Clear
12:15 PM 64.0 °F - 19.4 °F 18% 29.95 in 10.0 mi SSW 6.9 mph - N/A   Clear
12:35 PM 67.8 °F - 18.9 °F 15% 29.94 in 10.0 mi Calm Calm - N/A   Clear
1:15 PM 69.4 °F - 18.3 °F 14% 29.91 in 10.0 mi West 8.1 mph - N/A   Clear
1:35 PM 68.2 °F - 18.0 °F 15% 29.90 in 10.0 mi Calm Calm - N/A   Clear
1:55 PM 72.7 °F - 19.2 °F 13% 29.89 in 10.0 mi West 6.9 mph - N/A   Clear
2:15 PM 73.0 °F - 18.9 °F 13% 29.88 in 10.0 mi West 5.8 mph - N/A   Clear
3:15 PM 72.5 °F - 17.4 °F 12% 29.86 in 10.0 mi WSW 6.9 mph - N/A   Clear
3:35 PM 72.0 °F - 17.6 °F 13% 29.85 in 10.0 mi SSW 4.6 mph - N/A   Clear
3:55 PM 73.8 °F - 16.9 °F 12% 29.85 in 10.0 mi Calm Calm - N/A   Clear
4:15 PM 72.1 °F - 16.9 °F 12% 29.85 in 10.0 mi WSW 4.6 mph - N/A   Clear
4:55 PM 69.4 °F - 18.1 °F 14% 29.84 in 10.0 mi SW 5.8 mph - N/A   Clear
5:15 PM 67.5 °F - 17.4 °F 15% 29.84 in 10.0 mi SW 4.6 mph - N/A   Clear
5:55 PM 64.0 °F - 18.3 °F 17% 29.84 in 10.0 mi SW 5.8 mph - N/A   Clear
6:15 PM 61.9 °F - 17.8 °F 18% 29.84 in 10.0 mi WSW 3.5 mph - N/A   Clear
6:35 PM 58.5 °F - 18.0 °F 21% 29.85 in 10.0 mi WNW 4.6 mph - N/A   Clear
6:55 PM 59.2 °F - 17.6 °F 20% 29.85 in 10.0 mi West 4.6 mph - N/A   Clear
7:15 PM 59.0 °F - 17.6 °F 20% 29.85 in 10.0 mi NW 4.6 mph - N/A   Clear
7:35 PM 55.8 °F - 19.6 °F 24% 29.86 in 10.0 mi North 6.9 mph - N/A   Clear
8:15 PM 56.7 °F - 19.9 °F 24% 29.87 in 10.0 mi NNW 5.8 mph - N/A   Clear
8:35 PM 57.4 °F - 19.4 °F 23% 29.86 in 10.0 mi North 3.5 mph - N/A   Clear
8:55 PM 56.8 °F - 19.0 °F 23% 29.86 in 10.0 mi North 3.5 mph - N/A   Clear
9:15 PM 57.7 °F - 19.6 °F 23% 29.85 in 10.0 mi Calm Calm - N/A   Clear
9:55 PM 51.3 °F - 21.9 °F 32% 29.85 in 10.0 mi WSW 5.8 mph - N/A   Clear
10:15 PM 48.2 °F - 22.5 °F 36% 29.86 in 10.0 mi West 4.6 mph - N/A   Clear
10:35 PM 49.6 °F - 22.8 °F 35% 29.85 in 10.0 mi West 8.1 mph - N/A   Clear
10:55 PM 51.3 °F - 21.7 °F 31% 29.85 in 10.0 mi West 6.9 mph - N/A   Clear
11:15 PM 49.1 °F - 22.8 °F 36% 29.86 in 10.0 mi WNW 4.6 mph - N/A   Clear
11:35 PM 47.7 °F - 23.2 °F 38% 29.85 in 10.0 mi West 6.9 mph - N/A   Clear
11:55 PM 46.0 °F 43.1 °F 23.9 °F 42% 29.85 in 10.0 mi West 5.8 mph - N/A   Clear